[[{"header":{"parameterUnit":"m.s-1","parameterCategory":1,"la1":30.2991,"la2":30.254,"lo1":-89.0895,"lo2":-89.0444,"dy":0.0017,"dx":0.0017,"nx":28,"ny":28,"refTime":"2025-04-09T03:00:00:Z","depth":0,"parameterNumber":2,"parameterNumberName":"U-component_of_WINDS"},"data":[0,0,0,0,0,0,0,0,0,0,0,0,0,0,0,0,0,0,0,0,0,0,0,0,0,0,0,0,0,0,0,0,0,0,0,0,0,0,0,0,0,0,0,0,0,0,0,0,0,0,0,0,0,0,0,0,0,0,2.9128,2.9128,0,2.9163,2.9163,2.9164,2.9152,2.9151,2.915,2.915,2.9187,2.9189,2.9191,0,0,0,0,0,0,0,0,0,0,0,0,0,2.9052,2.9054,2.9128,2.9128,2.9129,2.9163,2.9163,2.9164,2.9152,2.9151,2.915,2.9149,2.9187,2.9189,2.9191,0,0,0,0,0,0,0,0,0,0,0,0,0,2.9086,2.9054,2.9128,2.9127,2.9127,2.9163,2.9163,2.9164,2.9152,2.9151,2.915,2.9149,2.9186,2.9189,2.9191,2.923,0,0,2.9199,2.92,0,0,0,0,0,0,0,0,2.9084,2.9089,2.9127,2.9127,2.9127,2.9152,2.9151,2.9186,2.9152,2.9143,2.915,2.9148,2.9177,2.918,2.9189,2.9232,2.9234,2.9199,2.9201,2.9202,2.9203,0,0,0,0,0,0,0,2.9082,2.9087,2.9142,2.9127,2.9128,2.9125,2.9129,2.9157,2.9166,2.9144,2.9143,2.9147,2.9177,2.9187,2.919,2.9234,2.9199,2.9201,2.9203,2.9204,2.9312,2.9313,0,0,0,0,0,0,2.9079,2.9086,2.9141,2.9143,2.9103,2.9128,2.9132,2.9145,2.9165,2.9167,2.9148,2.9146,2.9183,2.9187,2.9191,2.9239,2.9202,2.9204,2.9206,2.931,2.9312,2.9313,0,0,0,0,0,0,2.9078,2.9084,2.9139,2.9114,2.9121,2.913,2.9146,2.9147,2.9156,2.9169,2.917,2.9156,2.9182,2.9187,2.9221,2.924,2.9206,2.9208,2.9309,2.9311,2.9313,2.9334,0,0,0,0,0,0,2.9076,2.9084,2.9098,2.9114,2.9122,2.9168,2.9147,2.9148,2.9161,2.9159,2.9177,2.9179,2.9181,2.9217,2.9223,2.9243,2.921,2.9307,2.931,2.9312,2.9332,2.9336,2.934,0,0,0,0,0,2.9073,2.9103,2.9099,2.9106,2.9141,2.9169,2.9174,2.9175,2.9162,2.9177,2.9185,2.9179,2.9237,2.922,2.9227,2.9248,2.9306,2.9309,2.9312,2.933,2.9335,2.934,0,0,0,0,0,0,2.909,2.9105,2.9101,2.9137,2.9152,2.9167,2.9186,2.9181,2.92,2.9198,2.9199,2.9204,2.9238,2.9246,2.9228,2.9287,2.9269,2.9274,2.9281,2.9286,2.9291,2.9288,2.9212,0,0,0,0,0,2.9098,2.9119,2.9132,2.9163,2.917,2.9177,2.9189,2.9189,2.9204,2.9211,2.9221,2.9236,2.9258,2.9273,2.9293,2.9333,2.9337,2.935,2.9355,2.9358,2.9362,2.9384,2.939,2.9323,2.9323,2.9323,0,0,2.9115,2.9126,2.9139,2.9166,2.9177,2.92,2.9182,2.9206,2.9223,2.9214,2.9246,2.9254,2.9272,2.9308,2.9325,2.9317,2.9382,2.9362,2.9365,2.9367,2.9388,2.9394,2.94,2.9325,2.9325,2.9324,0,0,2.9157,2.9167,2.9194,2.9205,2.9222,2.9227,2.9233,2.9249,2.9254,2.9285,2.9279,2.93,2.9337,2.935,2.9361,2.9408,2.9403,2.9415,2.9438,2.9459,2.9465,2.9469,2.9486,2.9492,2.9419,2.9419,2.9419,0,2.9176,2.9209,2.9209,2.9234,2.9246,2.9238,2.9266,2.9277,2.93,2.9309,2.9299,2.9346,2.9357,2.9397,2.9408,2.9417,2.9425,2.9413,2.9464,2.9468,2.9473,2.9489,2.9495,2.942,2.942,2.942,2.942,0,2.9231,2.9254,2.9274,2.9296,2.9311,2.9337,2.9341,2.9356,2.9355,2.936,2.9393,2.9406,2.9429,2.9439,2.9438,2.9478,2.9472,2.9463,2.9445,2.9481,2.9496,2.9502,2.9422,2.9421,2.9421,2.9421,0,0,2.9286,2.9307,2.9314,2.9324,2.9342,2.936,2.9386,2.9408,2.9421,2.9437,2.946,2.9491,2.9483,2.9496,2.9496,2.9514,2.9551,2.9503,2.9503,2.9512,2.9597,2.9604,2.9611,2.9547,2.9548,2.9549,2.9595,0,2.933,2.9375,2.9376,2.9417,2.9439,2.9432,2.9454,2.9468,2.9474,2.9493,2.95,2.9522,2.9509,2.9517,2.9535,2.9543,2.9568,2.9539,2.9569,2.957,2.9565,2.9619,2.9627,2.967,2.9601,2.9602,2.9603,0,2.9387,2.9404,2.9448,2.9463,2.9472,2.9492,2.9513,2.9531,2.9547,2.955,2.9564,2.9562,2.9589,2.957,2.9607,2.9588,2.96,2.9605,2.9607,2.961,2.9589,2.9624,2.9683,2.969,2.9612,2.9612,2.9611,0,2.9423,2.9457,2.9488,2.9496,2.9515,2.9529,2.9537,2.9552,2.9565,2.9583,2.9592,2.9613,2.9624,2.9641,2.9644,2.963,2.9682,2.9663,2.9686,2.9686,2.9697,2.9697,2.976,2.9704,2.9704,2.9704,2.9704,0,2.9472,2.9499,2.9504,2.9523,2.9553,2.9554,2.9584,2.9592,2.9604,2.9625,2.962,2.9639,2.9643,2.9663,2.9666,2.9697,2.9702,2.9705,2.9706,2.9706,2.9706,2.9714,2.9712,2.9706,2.9706,2.9705,2.9705,0,2.9518,2.9522,2.9555,2.9569,2.9573,2.9595,2.9607,2.9626,2.9631,2.9657,2.9663,2.9671,2.9695,2.9699,2.9728,2.973,2.9766,2.9764,2.9761,2.9761,2.9783,2.9781,2.9854,2.9864,2.9802,2.9803,2.9803,0,2.9549,2.957,2.9586,2.9599,2.9608,2.9629,2.9643,2.9644,2.9658,2.9677,2.9693,2.9716,2.9735,2.9773,2.9782,2.9803,2.9802,2.9826,2.9805,2.9804,2.9802,2.9801,2.9803,2.983,2.983,2.9831,2.9831,0,2.9605,2.9606,2.9625,2.9645,2.9661,2.9677,2.9692,2.9703,2.9706,2.9723,2.9746,2.9761,2.9789,2.9812,2.9833,2.9842,2.9838,2.9838,2.9844,2.9845,2.9842,2.9844,2.9772,2.9836,2.9836,2.9835,2.9835,2.9835,2.9645,2.9663,2.9677,2.9698,2.971,2.9724,2.9742,2.9749,2.9768,2.9791,2.9791,2.9817,2.9832,2.986,2.987,2.9891,2.9884,2.9893,2.9895,2.9898,2.99,2.9839,2.9895,2.9895,2.9895,2.9895,2.9895,0,2.97,2.9709,2.9729,2.975,2.9767,2.976,2.9776,2.9791,2.9814,2.9828,2.9846,2.9873,2.9896,2.9906,2.9928,2.9942,2.9941,2.9948,2.9947,2.9949,2.9905,2.9898,2.9949,2.9949,2.9949,2.9949,2.9949,2.9949,2.9731,2.9762,2.9764,2.98,2.9809,2.9834,2.9844,2.9857,2.9868,2.9899,2.9917,2.9923,2.9936,2.9958,2.9979,2.9981,2.999,2.9998,2.9999,2.9958,2.9953,2.9947,2.994,3.0,3.0,3.0042,3.0042,3.0043]},{"header":{"parameterUnit":"m.s-1","parameterCategory":1,"la1":30.2991,"la2":30.254,"lo1":-89.0895,"lo2":-89.0444,"dy":0.0017,"dx":0.0017,"nx":28,"ny":28,"refTime":"2025-04-09T03:00:00:Z","depth":0,"parameterNumber":3,"parameterNumberName":"V-component_of_WINDS"},"data":[0,0,0,0,0,0,0,0,0,0,0,0,0,0,0,0,0,0,0,0,0,0,0,0,0,0,0,0,0,0,0,0,0,0,0,0,0,0,0,0,0,0,0,0,0,0,0,0,0,0,0,0,0,0,0,0,0,0,1.8819,1.8818,0,1.8782,1.8781,1.8781,1.8772,1.8772,1.8772,1.8773,1.8732,1.873,1.8729,0,0,0,0,0,0,0,0,0,0,0,0,0,1.8877,1.8876,1.8819,1.8818,1.8818,1.8782,1.8781,1.8781,1.8772,1.8772,1.8772,1.8773,1.8732,1.8731,1.8729,0,0,0,0,0,0,0,0,0,0,0,0,0,1.8847,1.8876,1.8819,1.8809,1.8808,1.8782,1.8781,1.878,1.8772,1.8772,1.8772,1.8773,1.8733,1.8731,1.8729,1.8709,0,0,1.8723,1.8722,0,0,0,0,0,0,0,0,1.8849,1.8845,1.8811,1.881,1.8808,1.8782,1.8787,1.8756,1.8772,1.8785,1.8773,1.8773,1.8748,1.8745,1.8737,1.8707,1.8705,1.8723,1.8721,1.872,1.872,0,0,0,0,0,0,0,1.8851,1.8846,1.8804,1.881,1.8809,1.8805,1.8801,1.8781,1.8765,1.8784,1.8783,1.8779,1.8747,1.8739,1.8736,1.8705,1.8723,1.8721,1.872,1.8719,1.8653,1.8653,0,0,0,0,0,0,1.8855,1.8848,1.8805,1.8803,1.883,1.8804,1.8799,1.879,1.8765,1.8762,1.8779,1.8779,1.8742,1.8738,1.8734,1.8707,1.872,1.8719,1.8717,1.8654,1.8653,1.8652,0,0,0,0,0,0,1.8856,1.8851,1.8807,1.8825,1.8819,1.8802,1.8792,1.8789,1.878,1.8761,1.8758,1.8774,1.8742,1.8737,1.8715,1.8706,1.8718,1.8716,1.8654,1.8653,1.8653,1.8655,0,0,0,0,0,0,1.8858,1.8852,1.8845,1.8825,1.8818,1.8789,1.8791,1.8788,1.8777,1.8777,1.8755,1.8752,1.8742,1.8718,1.8713,1.8703,1.8714,1.8655,1.8654,1.8653,1.8655,1.8654,1.8653,0,0,0,0,0,1.886,1.8847,1.8845,1.884,1.881,1.8789,1.8785,1.8774,1.8777,1.8769,1.8756,1.8753,1.8708,1.8716,1.871,1.87,1.8656,1.8654,1.8653,1.8656,1.8654,1.8653,0,0,0,0,0,0,1.8867,1.8845,1.8842,1.8823,1.8808,1.8787,1.8778,1.8773,1.8757,1.8757,1.8744,1.8739,1.8717,1.8706,1.8715,1.8677,1.8681,1.8679,1.8685,1.8684,1.8683,1.8685,1.8713,0,0,0,0,0,1.8866,1.8852,1.8833,1.8817,1.881,1.8795,1.8785,1.8778,1.8762,1.8755,1.8741,1.8724,1.8706,1.8694,1.8677,1.8654,1.8647,1.8643,1.8642,1.8641,1.8639,1.8623,1.862,1.8648,1.8648,1.8648,0,0,1.8864,1.885,1.8842,1.8818,1.8806,1.8789,1.879,1.8773,1.876,1.8753,1.873,1.8719,1.8699,1.8676,1.8665,1.8666,1.863,1.864,1.8639,1.8637,1.8621,1.8619,1.8616,1.8647,1.8648,1.8648,0,0,1.8852,1.8841,1.8826,1.8813,1.8795,1.8784,1.8781,1.876,1.8753,1.873,1.8723,1.8707,1.8677,1.8662,1.8651,1.863,1.8625,1.8625,1.8618,1.8603,1.8601,1.8598,1.8589,1.8586,1.8623,1.8623,1.8623,0,1.8852,1.8829,1.8819,1.8802,1.879,1.8783,1.8766,1.8754,1.873,1.8721,1.8723,1.8683,1.867,1.8641,1.8636,1.8628,1.8621,1.8627,1.8602,1.86,1.8598,1.8588,1.8585,1.8623,1.8623,1.8623,1.8623,0,1.8829,1.8812,1.8802,1.8779,1.8766,1.875,1.8735,1.8723,1.8717,1.8706,1.8681,1.8664,1.8642,1.8634,1.8628,1.8604,1.8605,1.8605,1.8608,1.8595,1.8586,1.8583,1.8623,1.8623,1.8623,1.8623,0,0,1.8821,1.8792,1.8788,1.8776,1.8754,1.874,1.8722,1.87,1.8689,1.8672,1.8655,1.8628,1.8627,1.8614,1.8605,1.8592,1.8574,1.8592,1.8592,1.8588,1.8543,1.8542,1.8539,1.857,1.857,1.8569,1.8544,0,1.8806,1.8774,1.8763,1.8736,1.8719,1.871,1.8694,1.8677,1.8665,1.8648,1.8635,1.8615,1.8616,1.8608,1.8594,1.8579,1.8564,1.8581,1.8552,1.8551,1.8556,1.8534,1.8535,1.8512,1.8541,1.854,1.854,0,1.8784,1.8766,1.8738,1.8715,1.8707,1.8693,1.8671,1.8655,1.8635,1.8627,1.8611,1.8603,1.8581,1.8586,1.8554,1.8565,1.8552,1.8543,1.8542,1.8538,1.8544,1.8528,1.8504,1.85,1.8534,1.8535,1.8535,0,1.8779,1.8749,1.8727,1.8717,1.8691,1.868,1.8668,1.8648,1.8635,1.8615,1.8606,1.8583,1.8571,1.8553,1.8537,1.8543,1.8506,1.851,1.8496,1.8497,1.8489,1.8489,1.8461,1.8483,1.8483,1.8483,1.8483,0,1.8763,1.8745,1.8724,1.8711,1.869,1.8676,1.8655,1.8642,1.8624,1.8606,1.8597,1.858,1.8562,1.8542,1.853,1.8503,1.8498,1.8489,1.8486,1.8489,1.849,1.848,1.8481,1.8482,1.8482,1.8482,1.8483,0,1.8754,1.874,1.8715,1.8691,1.8685,1.867,1.8648,1.8634,1.8621,1.8598,1.8592,1.8571,1.8547,1.853,1.8499,1.849,1.8461,1.8459,1.8468,1.8466,1.8453,1.8454,1.8416,1.8409,1.8437,1.8437,1.8437,0,1.8745,1.8731,1.8705,1.8692,1.868,1.8661,1.8647,1.8632,1.8617,1.8591,1.8579,1.8554,1.8533,1.8494,1.8475,1.845,1.8446,1.8435,1.8442,1.8445,1.8443,1.8444,1.8441,1.8433,1.8433,1.8433,1.8433,0,1.8728,1.872,1.8702,1.8679,1.8663,1.8644,1.8625,1.8615,1.8596,1.858,1.8555,1.8539,1.8506,1.848,1.8453,1.8439,1.8431,1.843,1.8425,1.8428,1.8433,1.8428,1.8463,1.8431,1.8431,1.8431,1.8432,1.8432,1.8717,1.8703,1.8682,1.866,1.8644,1.8626,1.861,1.8595,1.8574,1.8547,1.8539,1.8512,1.8488,1.8451,1.8436,1.8413,1.8414,1.8407,1.8405,1.8404,1.8402,1.8438,1.8408,1.8408,1.8408,1.8408,1.8408,0,1.8698,1.8684,1.8664,1.8637,1.8619,1.8615,1.8593,1.8577,1.8554,1.8534,1.8513,1.8482,1.8456,1.8434,1.8407,1.8393,1.8388,1.8386,1.8386,1.8382,1.8405,1.8411,1.839,1.839,1.839,1.839,1.839,1.839,1.8687,1.8662,1.8652,1.8618,1.8603,1.8577,1.8565,1.8547,1.853,1.8496,1.8475,1.8461,1.8438,1.8409,1.8384,1.8378,1.8367,1.8365,1.8358,1.8379,1.8381,1.8383,1.8388,1.8363,1.8363,1.8337,1.8337,1.8336]}]]